Find Orbcomm FM106

NORAD ID: 40088 Int'l Des: 2014-040 Owner: ORBC Country: US Constellation: orbcomm operational
LEOCIRCULAR

当前视图

正在加载3D地球...

关于 Orbcomm FM106

正在加载描述...

即将过境

Passes for default location (London). Set your location on the main map for personalized predictions.

高度历史

Loading altitude history...

两行轨道根数

1 40088U 14040C 26150.21212178 .00001177 00000-0 22294-3 0 9995
2 40088 47.0613 331.1020 0016930 240.9997 118.9197 14.70466075634539
Epoch: May 30, 2026 • Age: 23 hours

当前状态

高度 671.2 km
速度 7.52 km/s
星下点 42.59°N, 132.96°E
发射日期 Jul 14, 2014
运行时间 11.8 years
类型 other

技术详情

分类 Payload
质量 172.00 kg
干质量 158.00 kg
总质量 172.00 kg
长度 1.00 m
直径 0.50 m
跨度 13.00 m
形状 Box+pan+ant
制造商 SNVL
平台类型 SN-100A
阶段状态 In Orbit
所有者/国家 ORBC/US

Most Searched